sat.trackr.live / text

‹ back to catalog

BANGABANDHUSAT-1

NORAD 43463 · 2018-044A

PAYLOAD ACTIVE UNKNOWN

§ Identity

Operator
Country
BGD
Launch date
2018-05-11
Launch site
AFETR
Launch vehicle
Mass (kg)
RCS (m²)

Purposes: comms

External: N2YO · Heavens-Above · Gunter

§ Orbital elements

Epoch: 2026-05-25T00:53:13.539264Z

Period
1,436.10 min
Inclination
0.0458°
Eccentricity
0.0001931
Mean motion
1.00271792 rev/d
Perigee alt
35,778.5 km
Apogee alt
35,794.7 km
Semi-major
42,164.7 km
B*
0.0000e+0
RAAN
112.4260°
Arg perigee
309.8237°
Mean anomaly
312.7916°
Rev number
2,947

§ Raw data

BANGABANDHUSAT-11 43463U 18044A   26145.03696226 -.00000365  00000+0  00000+0 0  99922 43463   0.0458 112.4260 0001931 309.8237 312.7916  1.00271792 29471

JSON: /api/v1/satellites/43463 · /tle

For live sub-satellite position, see the globe view (requires WebGL).

§ Visibility from observer

Set your observer location to see the next 7 days of passes ≥ 10°. The values pass through the URL so the page stays shareable.

No JS? Fill the form by hand. The geolocation button needs JavaScript.